EWG5MU EGLL-EDDH

Flight info

Callsign EWG5MU
Flight time 1h 11m
Altitude 37000
Route BPK Q295 SOMVA DCT MAVAS DCT GASTU DCT OSTOR/N0382F230 T904 RIBSO RIBSO7A
Aircraft A320/M-SDE3FGHIRWY/LB1

Departure

Time 2026-05-06 14:57
Airport London Heathrow Airport (EGLL)

Arrival

Time 2026-05-06 16:08
Airport Hamburg Helmut Schmidt Airport (EDDH)
Time Latitude Longitude Altitude Speed Heading
2026-05-06 14:27 51.46857 -0.44683 91 ft 0 kts 267°
2026-05-06 14:46 51.46857 -0.44682 86 ft 1 kts 267°
2026-05-06 14:46 51.46858 -0.44652 87 ft 3 kts 267°
2026-05-06 14:47 51.46859 -0.44620 89 ft 3 kts 267°
2026-05-06 14:47 51.46859 -0.44592 90 ft 3 kts 258°
2026-05-06 14:47 51.46866 -0.44566 89 ft 3 kts 212°
2026-05-06 14:47 51.46884 -0.44557 89 ft 3 kts 181°
2026-05-06 14:48 51.46902 -0.44557 86 ft 1 kts 180°
2026-05-06 14:48 51.46903 -0.44557 86 ft 0 kts 180°
2026-05-06 14:50 51.46890 -0.44557 87 ft 6 kts 179°
2026-05-06 14:50 51.46816 -0.44554 86 ft 15 kts 179°
2026-05-06 14:50 51.46716 -0.44552 86 ft 10 kts 179°
2026-05-06 14:50 51.46668 -0.44595 88 ft 8 kts 242°
2026-05-06 14:51 51.46662 -0.44670 86 ft 6 kts 268°
2026-05-06 14:51 51.46663 -0.44768 86 ft 14 kts 272°
2026-05-06 14:51 51.46664 -0.44935 86 ft 14 kts 269°
2026-05-06 14:51 51.46663 -0.45100 86 ft 19 kts 270°
2026-05-06 14:52 51.46663 -0.45320 86 ft 20 kts 268°
2026-05-06 14:52 51.46662 -0.45547 86 ft 21 kts 270°
2026-05-06 14:52 51.46662 -0.45779 86 ft 21 kts 269°
2026-05-06 14:52 51.46661 -0.46022 86 ft 22 kts 270°
2026-05-06 14:53 51.46660 -0.46279 88 ft 24 kts 270°
2026-05-06 14:53 51.46659 -0.46550 90 ft 25 kts 269°
2026-05-06 14:53 51.46657 -0.46836 88 ft 26 kts 270°
2026-05-06 14:53 51.46657 -0.47137 89 ft 28 kts 269°
2026-05-06 14:54 51.46656 -0.47448 86 ft 29 kts 268°
2026-05-06 14:54 51.46655 -0.47727 86 ft 20 kts 270°
2026-05-06 14:54 51.46654 -0.47901 86 ft 13 kts 270°
2026-05-06 14:54 51.46653 -0.48037 86 ft 11 kts 269°
2026-05-06 14:55 51.46652 -0.48155 86 ft 10 kts 263°
2026-05-06 14:55 51.46609 -0.48212 87 ft 8 kts 188°
2026-05-06 14:55 51.46563 -0.48220 87 ft 5 kts 180°
2026-05-06 14:55 51.46512 -0.48217 88 ft 10 kts 172°
2026-05-06 14:56 51.46480 -0.48145 89 ft 7 kts 91°
2026-05-06 14:56 51.46480 -0.48100 87 ft 22 kts 90°
2026-05-06 14:56 51.46482 -0.47432 86 ft 94 kts 90°
2026-05-06 14:56 51.46492 -0.46070 86 ft 148 kts 89°
2026-05-06 14:57 51.46493 -0.44246 368 ft 169 kts 85°
2026-05-06 14:57 51.46521 -0.42365 999 ft 168 kts 81°
2026-05-06 14:57 51.46910 -0.40616 1416 ft 174 kts 48°
2026-05-06 14:57 51.47753 -0.39043 1563 ft 197 kts 48°
2026-05-06 14:58 51.48663 -0.37219 1716 ft 221 kts 48°
2026-05-06 14:58 51.49678 -0.35216 1916 ft 241 kts 49°
2026-05-06 14:58 51.50749 -0.33094 2433 ft 247 kts 50°
2026-05-06 14:58 51.51834 -0.30926 3024 ft 250 kts 50°
2026-05-06 14:59 51.52638 -0.28483 3596 ft 255 kts 68°
2026-05-06 14:59 51.53222 -0.25775 4416 ft 258 kts 69°
2026-05-06 14:59 51.53921 -0.23116 5345 ft 259 kts 55°
2026-05-06 14:59 51.55108 -0.20939 5849 ft 260 kts 35°
2026-05-06 15:00 51.56725 -0.19718 5982 ft 259 kts 15°
2026-05-06 15:00 51.58422 -0.18753 6053 ft 259 kts 22°
2026-05-06 15:00 51.60093 -0.17775 6056 ft 258 kts 18°
2026-05-06 15:00 51.61796 -0.16887 6057 ft 259 kts 17°
2026-05-06 15:01 51.63521 -0.16024 6063 ft 259 kts 16°
2026-05-06 15:01 51.65223 -0.15202 6061 ft 258 kts 16°
2026-05-06 15:01 51.66952 -0.14408 6063 ft 258 kts 15°
2026-05-06 15:01 51.68696 -0.13650 6065 ft 260 kts 14°
2026-05-06 15:02 51.70442 -0.12905 6064 ft 259 kts 14°
2026-05-06 15:02 51.72184 -0.12162 6064 ft 259 kts 15°
2026-05-06 15:02 51.73777 -0.10795 6545 ft 265 kts 43°
2026-05-06 15:02 51.74886 -0.08394 7406 ft 271 kts 62°
2026-05-06 15:03 51.75441 -0.05441 8202 ft 281 kts 79°
2026-05-06 15:03 51.75688 -0.02288 8979 ft 286 kts 80°
2026-05-06 15:03 51.75947 0.00925 9733 ft 291 kts 80°
2026-05-06 15:03 51.76215 0.04169 10298 ft 304 kts 81°
2026-05-06 15:04 51.76506 0.07679 10538 ft 327 kts 81°
2026-05-06 15:04 51.76814 0.11420 10925 ft 343 kts 81°
2026-05-06 15:04 51.77130 0.15278 11563 ft 349 kts 80°
2026-05-06 15:04 51.77451 0.19186 12304 ft 353 kts 81°
2026-05-06 15:05 51.77774 0.23150 12999 ft 359 kts 81°
2026-05-06 15:05 51.78102 0.27167 13700 ft 363 kts 81°
2026-05-06 15:05 51.78434 0.31222 14350 ft 367 kts 81°
2026-05-06 15:05 51.78767 0.35329 14933 ft 371 kts 81°
2026-05-06 15:06 51.79099 0.39480 15569 ft 374 kts 81°
2026-05-06 15:06 51.79430 0.43672 16196 ft 378 kts 82°
2026-05-06 15:06 51.79757 0.47848 16787 ft 382 kts 82°
2026-05-06 15:06 51.80092 0.52118 17442 ft 384 kts 82°
2026-05-06 15:07 51.80429 0.56421 18037 ft 388 kts 82°
2026-05-06 15:07 51.80769 0.60771 18595 ft 392 kts 82°
2026-05-06 15:07 51.81250 0.65119 19088 ft 395 kts 73°
2026-05-06 15:07 51.82175 0.69313 19582 ft 398 kts 66°
2026-05-06 15:08 51.83262 0.73445 20141 ft 401 kts 66°
2026-05-06 15:08 51.84352 0.77620 20650 ft 405 kts 66°
2026-05-06 15:08 51.85445 0.81831 21191 ft 407 kts 66°
2026-05-06 15:08 51.86542 0.86076 21709 ft 411 kts 66°
2026-05-06 15:09 51.87646 0.90363 22228 ft 414 kts 66°
2026-05-06 15:09 51.88754 0.94683 22735 ft 418 kts 67°
2026-05-06 15:09 51.89871 0.99044 23238 ft 420 kts 67°
2026-05-06 15:09 51.90993 1.03423 23754 ft 422 kts 67°
2026-05-06 15:10 51.92120 1.07819 24183 ft 424 kts 67°
2026-05-06 15:10 51.93251 1.12240 24591 ft 426 kts 67°
2026-05-06 15:10 51.94370 1.16627 24979 ft 428 kts 67°
2026-05-06 15:10 51.95508 1.21099 25362 ft 430 kts 67°
2026-05-06 15:11 51.96649 1.25596 25737 ft 432 kts 67°
2026-05-06 15:11 51.97791 1.30115 26098 ft 435 kts 67°
2026-05-06 15:11 51.98938 1.34666 26465 ft 437 kts 68°
2026-05-06 15:11 52.00088 1.39241 26822 ft 439 kts 68°
2026-05-06 15:12 52.01245 1.43843 27177 ft 441 kts 68°
2026-05-06 15:12 52.02404 1.48464 27526 ft 444 kts 68°
2026-05-06 15:12 52.03569 1.53116 27833 ft 446 kts 68°
2026-05-06 15:12 52.04738 1.57799 28155 ft 449 kts 68°
2026-05-06 15:13 52.05913 1.62509 28480 ft 451 kts 68°
2026-05-06 15:13 52.07093 1.67243 28796 ft 453 kts 68°
2026-05-06 15:13 52.08258 1.71938 29104 ft 455 kts 68°
2026-05-06 15:13 52.09443 1.76721 29403 ft 457 kts 68°
2026-05-06 15:14 52.10633 1.81522 29694 ft 459 kts 68°
2026-05-06 15:14 52.11826 1.86338 29985 ft 460 kts 68°
2026-05-06 15:14 52.13023 1.91188 30218 ft 462 kts 68°
2026-05-06 15:14 52.14219 1.96051 30450 ft 464 kts 68°
2026-05-06 15:15 52.15415 2.00935 30649 ft 466 kts 69°
2026-05-06 15:15 52.16613 2.05846 30855 ft 467 kts 69°
2026-05-06 15:15 52.17796 2.10704 31058 ft 469 kts 69°
2026-05-06 15:15 52.18995 2.15637 31355 ft 468 kts 69°
2026-05-06 15:16 52.20190 2.20560 31643 ft 467 kts 69°
2026-05-06 15:16 52.21383 2.25481 31951 ft 466 kts 69°
2026-05-06 15:16 52.22570 2.30389 32232 ft 465 kts 68°
2026-05-06 15:16 52.23754 2.35295 32556 ft 464 kts 68°
2026-05-06 15:17 52.24933 2.40193 32822 ft 464 kts 68°
2026-05-06 15:17 52.26110 2.45087 33154 ft 463 kts 68°
2026-05-06 15:17 52.27268 2.49913 33382 ft 463 kts 69°
2026-05-06 15:17 52.28440 2.54811 33663 ft 463 kts 68°
2026-05-06 15:18 52.29609 2.59710 33916 ft 463 kts 68°
2026-05-06 15:18 52.30751 2.64615 34178 ft 462 kts 72°
2026-05-06 15:18 52.31668 2.69653 34374 ft 463 kts 74°
2026-05-06 15:18 52.32559 2.74701 34611 ft 462 kts 74°
2026-05-06 15:19 52.33447 2.79752 34778 ft 463 kts 74°
2026-05-06 15:19 52.34335 2.84818 34998 ft 463 kts 74°
2026-05-06 15:19 52.35208 2.89821 35173 ft 464 kts 74°
2026-05-06 15:19 52.36090 2.94892 35376 ft 464 kts 74°
2026-05-06 15:20 52.36972 2.99979 35538 ft 465 kts 75°
2026-05-06 15:20 52.37854 3.05065 35707 ft 465 kts 75°
2026-05-06 15:20 52.38736 3.10160 35868 ft 466 kts 75°
2026-05-06 15:20 52.39636 3.15261 36039 ft 466 kts 71°
2026-05-06 15:21 52.40850 3.20176 36199 ft 467 kts 65°
2026-05-06 15:21 52.42222 3.24997 36366 ft 467 kts 65°
2026-05-06 15:21 52.43586 3.29821 36529 ft 467 kts 65°
2026-05-06 15:21 52.44931 3.34589 36695 ft 467 kts 65°
2026-05-06 15:22 52.46289 3.39424 36869 ft 467 kts 65°
2026-05-06 15:22 52.48996 3.49123 36931 ft 468 kts 66°
2026-05-06 15:23 52.51707 3.58860 36945 ft 470 kts 66°
2026-05-06 15:23 52.54419 3.68610 36946 ft 470 kts 66°
2026-05-06 15:24 52.57104 3.78318 36942 ft 470 kts 66°
2026-05-06 15:24 52.59798 3.88095 36933 ft 469 kts 66°
2026-05-06 15:25 52.62484 3.97891 36941 ft 470 kts 66°
2026-05-06 15:25 52.65160 4.07702 36942 ft 469 kts 66°
2026-05-06 15:26 52.67808 4.17444 36953 ft 469 kts 66°
2026-05-06 15:26 52.70465 4.27267 36953 ft 469 kts 66°
2026-05-06 15:27 52.73117 4.37107 36948 ft 470 kts 66°
2026-05-06 15:27 52.75765 4.46967 36945 ft 470 kts 66°
2026-05-06 15:28 52.78406 4.56837 36954 ft 470 kts 67°
2026-05-06 15:28 52.81022 4.66664 36947 ft 470 kts 67°
2026-05-06 15:29 52.83647 4.76570 36962 ft 470 kts 67°
2026-05-06 15:29 52.86266 4.86491 36963 ft 471 kts 67°
2026-05-06 15:30 52.88870 4.96431 36964 ft 471 kts 67°
2026-05-06 15:30 52.91452 5.06311 36958 ft 471 kts 67°
2026-05-06 15:31 52.94052 5.16277 36954 ft 471 kts 67°
2026-05-06 15:31 52.96642 5.26265 36957 ft 471 kts 68°
2026-05-06 15:32 53.00508 5.41271 36947 ft 472 kts 68°
2026-05-06 15:32 53.03060 5.51224 36950 ft 472 kts 68°
2026-05-06 15:33 53.05625 5.61254 36941 ft 472 kts 68°
2026-05-06 15:33 53.08179 5.71295 36961 ft 471 kts 68°
2026-05-06 15:34 53.10717 5.81344 36965 ft 471 kts 68°
2026-05-06 15:34 53.13229 5.91339 36969 ft 471 kts 68°
2026-05-06 15:35 53.15756 6.01418 36961 ft 472 kts 68°
2026-05-06 15:35 53.18276 6.11515 36956 ft 472 kts 68°
2026-05-06 15:36 53.20783 6.21625 36948 ft 471 kts 69°
2026-05-06 15:36 53.23259 6.31671 36949 ft 471 kts 69°
2026-05-06 15:37 53.25752 6.41784 36945 ft 471 kts 69°
2026-05-06 15:37 53.28239 6.51904 36948 ft 471 kts 69°
2026-05-06 15:38 53.30706 6.62046 36939 ft 471 kts 69°
2026-05-06 15:38 53.33167 6.72187 36931 ft 471 kts 69°
2026-05-06 15:39 53.35601 6.82270 36935 ft 470 kts 69°
2026-05-06 15:39 53.38048 6.92426 36935 ft 470 kts 69°
2026-05-06 15:40 53.40486 7.02587 36878 ft 471 kts 69°
2026-05-06 15:40 53.41699 7.07675 36618 ft 469 kts 69°
2026-05-06 15:40 53.42904 7.12747 36363 ft 468 kts 69°
2026-05-06 15:41 53.44090 7.17747 35990 ft 468 kts 69°
2026-05-06 15:41 53.45296 7.22844 35072 ft 472 kts 70°
2026-05-06 15:41 53.46507 7.27970 34197 ft 474 kts 69°
2026-05-06 15:41 53.47724 7.33124 33220 ft 475 kts 69°
2026-05-06 15:42 53.48928 7.38236 32734 ft 466 kts 69°
2026-05-06 15:42 53.50111 7.43273 32101 ft 461 kts 70°
2026-05-06 15:42 53.51279 7.48257 31498 ft 456 kts 70°
2026-05-06 15:42 53.52431 7.53192 30910 ft 452 kts 70°
2026-05-06 15:43 53.53554 7.58024 30340 ft 448 kts 70°
2026-05-06 15:43 53.54681 7.62884 29716 ft 444 kts 71°
2026-05-06 15:43 53.55794 7.67696 29137 ft 439 kts 70°
2026-05-06 15:43 53.56893 7.72456 28574 ft 434 kts 71°
2026-05-06 15:44 53.57976 7.77168 28022 ft 430 kts 70°
2026-05-06 15:44 53.59052 7.81848 27472 ft 426 kts 70°
2026-05-06 15:44 53.60117 7.86477 26934 ft 422 kts 70°
2026-05-06 15:44 53.61173 7.91071 26414 ft 419 kts 70°
2026-05-06 15:45 53.62201 7.95563 25908 ft 415 kts 70°
2026-05-06 15:45 53.63235 8.00086 25430 ft 412 kts 70°
2026-05-06 15:45 53.64208 8.04597 24971 ft 408 kts 71°
2026-05-06 15:45 53.65102 8.09117 24494 ft 405 kts 72°
2026-05-06 15:46 53.65947 8.13629 24044 ft 402 kts 73°
2026-05-06 15:46 53.66768 8.18122 23584 ft 400 kts 73°
2026-05-06 15:46 53.67585 8.22596 23067 ft 398 kts 73°
2026-05-06 15:46 53.68405 8.27029 22613 ft 394 kts 73°
2026-05-06 15:47 53.69213 8.31353 22165 ft 390 kts 73°
2026-05-06 15:47 53.70034 8.35698 21704 ft 387 kts 73°
2026-05-06 15:47 53.70850 8.40003 21230 ft 384 kts 73°
2026-05-06 15:47 53.71660 8.44276 20781 ft 381 kts 73°
2026-05-06 15:48 53.72463 8.48525 20316 ft 378 kts 73°
2026-05-06 15:48 53.73257 8.52744 19852 ft 376 kts 74°
2026-05-06 15:48 53.74044 8.56943 19395 ft 374 kts 73°
2026-05-06 15:48 53.74822 8.61122 18932 ft 373 kts 74°
2026-05-06 15:49 53.75597 8.65295 18460 ft 372 kts 74°
2026-05-06 15:49 53.76370 8.69457 17992 ft 370 kts 73°
2026-05-06 15:49 53.77127 8.73542 17525 ft 368 kts 73°
2026-05-06 15:49 53.77886 8.77646 17081 ft 364 kts 74°
2026-05-06 15:50 53.78635 8.81715 16639 ft 361 kts 74°
2026-05-06 15:50 53.79377 8.85751 16205 ft 358 kts 73°
2026-05-06 15:50 53.80111 8.89753 15774 ft 355 kts 73°
2026-05-06 15:50 53.80841 8.93736 15344 ft 353 kts 75°
2026-05-06 15:51 53.81561 8.97679 14918 ft 350 kts 74°
2026-05-06 15:51 53.82034 9.00277 14639 ft 348 kts 75°
2026-05-06 15:51 53.82731 9.05527 14068 ft 343 kts 87°
2026-05-06 15:51 53.82709 9.09526 13636 ft 339 kts 97°
2026-05-06 15:52 53.82473 9.13484 13173 ft 336 kts 97°
2026-05-06 15:52 53.82247 9.17400 12746 ft 333 kts 96°
2026-05-06 15:52 53.82025 9.21283 12308 ft 330 kts 96°
2026-05-06 15:52 53.81688 9.25073 12061 ft 320 kts 107°
2026-05-06 15:53 53.81146 9.27324 12001 ft 304 kts 119°
2026-05-06 15:53 53.79898 9.30076 11936 ft 295 kts 137°
2026-05-06 15:53 53.78206 9.32073 11450 ft 302 kts 155°
2026-05-06 15:53 53.75441 9.33023 10309 ft 315 kts 181°
2026-05-06 15:54 53.73230 9.33017 9793 ft 318 kts 180°
2026-05-06 15:54 53.71063 9.33059 9618 ft 303 kts 179°
2026-05-06 15:54 53.69704 9.33099 9527 ft 288 kts 179°
2026-05-06 15:54 53.67775 9.33163 9364 ft 268 kts 179°
2026-05-06 15:55 53.65941 9.33217 8930 ft 261 kts 179°
2026-05-06 15:55 53.64138 9.33270 8409 ft 258 kts 178°
2026-05-06 15:55 53.62353 9.33325 7966 ft 252 kts 177°
2026-05-06 15:55 53.60603 9.33375 7874 ft 251 kts 177°
2026-05-06 15:56 53.58291 9.33444 7520 ft 250 kts 177°
2026-05-06 15:56 53.56556 9.33493 6961 ft 249 kts 177°
2026-05-06 15:56 53.55391 9.33526 6601 ft 247 kts 177°
2026-05-06 15:56 53.53700 9.33573 6313 ft 243 kts 176°
2026-05-06 15:57 53.51995 9.33620 6189 ft 246 kts 176°
2026-05-06 15:57 53.50281 9.33669 6074 ft 246 kts 176°
2026-05-06 15:57 53.48575 9.33716 5932 ft 245 kts 176°
2026-05-06 15:57 53.46872 9.33762 5806 ft 244 kts 176°
2026-05-06 15:58 53.45174 9.33807 5675 ft 244 kts 176°
2026-05-06 15:58 53.43523 9.34231 5464 ft 236 kts 155°
2026-05-06 15:58 53.42175 9.35702 5404 ft 231 kts 129°
2026-05-06 15:58 53.41352 9.37914 5358 ft 226 kts 105°
2026-05-06 15:59 53.40963 9.40498 5304 ft 226 kts 101°
2026-05-06 15:59 53.40604 9.43028 5253 ft 227 kts 101°
2026-05-06 15:59 53.40237 9.45593 5205 ft 225 kts 101°
2026-05-06 15:59 53.39888 9.48148 5146 ft 225 kts 96°
2026-05-06 16:00 53.39910 9.50744 5089 ft 222 kts 78°
2026-05-06 16:00 53.40418 9.53154 4825 ft 218 kts 59°
2026-05-06 16:00 53.41288 9.55216 4250 ft 217 kts 51°
2026-05-06 16:00 53.42250 9.57148 4015 ft 214 kts 51°
2026-05-06 16:01 53.43212 9.59056 3990 ft 213 kts 51°
2026-05-06 16:01 53.44122 9.60863 3997 ft 197 kts 50°
2026-05-06 16:01 53.44968 9.62548 3996 ft 182 kts 51°
2026-05-06 16:01 53.45791 9.64190 4007 ft 185 kts 50°
2026-05-06 16:02 53.46610 9.65824 3769 ft 181 kts 51°
2026-05-06 16:02 53.47382 9.67364 3661 ft 163 kts 50°
2026-05-06 16:02 53.48083 9.68765 3523 ft 152 kts 51°
2026-05-06 16:02 53.48747 9.70090 3387 ft 145 kts 51°
2026-05-06 16:03 53.49389 9.71375 3198 ft 142 kts 51°
2026-05-06 16:03 53.50024 9.72645 3064 ft 142 kts 51°
2026-05-06 16:03 53.50660 9.73919 3004 ft 142 kts 51°
2026-05-06 16:03 53.51292 9.75185 3008 ft 141 kts 51°
2026-05-06 16:04 53.51916 9.76434 3011 ft 142 kts 51°
2026-05-06 16:04 53.52551 9.77707 2941 ft 142 kts 51°
2026-05-06 16:04 53.53186 9.78980 2798 ft 142 kts 51°
2026-05-06 16:04 53.53818 9.80248 2620 ft 141 kts 51°
2026-05-06 16:05 53.54445 9.81508 2446 ft 140 kts 51°
2026-05-06 16:05 53.55070 9.82763 2248 ft 140 kts 51°
2026-05-06 16:05 53.55694 9.84017 2065 ft 140 kts 50°
2026-05-06 16:05 53.56315 9.85265 1877 ft 138 kts 50°
2026-05-06 16:06 53.56933 9.86508 1688 ft 138 kts 51°
2026-05-06 16:06 53.57551 9.87753 1496 ft 139 kts 50°
2026-05-06 16:06 53.58165 9.88989 1298 ft 140 kts 51°
2026-05-06 16:06 53.58785 9.90237 1090 ft 139 kts 51°
2026-05-06 16:07 53.59401 9.91480 894 ft 137 kts 50°
2026-05-06 16:07 53.60016 9.92720 691 ft 138 kts 49°
2026-05-06 16:07 53.60630 9.93957 511 ft 139 kts 49°
2026-05-06 16:07 53.61249 9.95212 318 ft 139 kts 51°
2026-05-06 16:08 53.61857 9.96446 123 ft 137 kts 50°
2026-05-06 16:08 53.62448 9.97628 43 ft 120 kts 50°
2026-05-06 16:08 53.62878 9.98501 44 ft 74 kts 50°
2026-05-06 16:08 53.63114 9.98979 46 ft 41 kts 50°
2026-05-06 16:09 53.63273 9.99306 47 ft 23 kts 61°
2026-05-06 16:09 53.63287 9.99561 44 ft 18 kts 97°
2026-05-06 16:09 53.63281 9.99629 44 ft 1 kts 98°
2026-05-06 16:10 53.63281 9.99631 45 ft 1 kts 99°
2026-05-06 16:10 53.63274 9.99695 45 ft 9 kts 99°
2026-05-06 16:11 53.63301 9.99806 45 ft 12 kts 47°
2026-05-06 16:11 53.63361 9.99925 45 ft 15 kts 50°
2026-05-06 16:11 53.63424 10.00060 46 ft 12 kts 60°
2026-05-06 16:11 53.63405 10.00186 45 ft 9 kts 121°
2026-05-06 16:12 53.63347 10.00233 44 ft 9 kts 168°
2026-05-06 16:12 53.63332 10.00323 46 ft 9 kts 90°
2026-05-06 16:12 53.63332 10.00357 46 ft 0 kts 89°